AirNav   Air Wisconsin pilot careers
 
 673 users online  

0W0 Seattle Seaplanes Seaplane Base
Seattle, Washington, USA

GOING TO SEATTLE?


FAA INFORMATION EFFECTIVE 19 JULY 2018

Location

FAA Identifier: 0W0
Lat/Long: 47-37-39.3530N / 122-19-54.4570W
47-37.655883N / 122-19.907617W
47.6275981 / -122.3317936
(estimated)
Elevation: 14 ft. / 4 m (estimated)
Variation: 21E (1980)
From city: 1 mile N of SEATTLE, WA
Time zone: UTC -7 (UTC -8 during Standard Time)
Zip code: 98109

Seaplane Base Operations

Seaplane Base use: Open to the public
Activation date: 04/1986
Control tower: no
ARTCC: SEATTLE CENTER
FSS: SEATTLE FLIGHT SERVICE STATION
NOTAMs facility: SEA (NOTAM-D service available)
Attendance: 0800-DUSK
Wind indicator: yes
Segmented circle: no

Seaplane Base Communications

CTAF: 122.9
WX ASOS at BFI (6 nm S): PHONE 206-763-6904
WX ASOS at RNT (9 nm SE): 126.95 (425-255-6080)
WX ASOS at SEA (11 nm S): PHONE 206-214-2592
WX ASOS at PAE (17 nm N): 128.65 (425-355-6192)
WX AWOS-3PT at PWT (19 nm SW): 121.2 (360-674-2811)

Nearby radio navigation aids

VOR radial/distance  VOR name  Freq  Var
SEAr337/11.6SEATTLE VORTAC116.8019E
PAEr167/17.7PAINE VOR/DME110.6020E
TCMr356/29.4MCCHORD VORTAC109.6015E

 
NDB name  Hdg/Dist  Freq  Var  ID
NOLLA082/2.436215EBF -... ..-.
PARKK335/5.828115EHPK .... .--. -.-
GRAYE005/30.721616EGRF --. .-. ..-.
MASON COUNTY034/38.234819EMNC -- -. -.-.
LACOMAS358/38.332816ELAC .-.. .- -.-.

Seaplane Base Services

Airframe service: MINOR
Powerplant service: MINOR

Runway Information

Runway 18W/36W

Dimensions: 9500 x 300 ft. / 2896 x 91 m
Surface: water, in excellent condition
RUNWAY 18W  RUNWAY 36W
Traffic pattern: leftleft

Seaplane Base Ownership and Management from official FAA records

Ownership: Privately-owned
Owner: SEATTLE SEAPLANES
1325 FAIRVIEW EAST
SEATTLE, WA 98102
Phone 206-329-9638
Manager: JIM CHRYSLER
1325 FAIRVIEW EAST
SEATTLE, WA 98102
Phone 206-329-9638

Seaplane Base Operational Statistics

Aircraft based on the field: 4
Single engine airplanes: 4
    
Aircraft operations: avg 50/week *
96% air taxi
2% transient general aviation
2% local general aviation
* for 12-month period ending 31 December 2016

Additional Remarks

SMALL WATERCRAFT ACTVT ON LAKE.
FOR CD CTC SEA APCH AT 206-214-4794.

Instrument Procedures

There are no published instrument procedures at 0W0.

Some nearby airports with instrument procedures:

KBFI - Boeing Field/King County International Airport (6 nm S)
KRNT - Renton Municipal Airport (9 nm SE)
KSEA - Seattle-Tacoma International Airport (11 nm S)
KPAE - Snohomish County Airport (Paine Field) (17 nm N)
S50 - Auburn Municipal Airport (18 nm S)
S43 - Harvey Field Airport (19 nm NE)
KPWT - Bremerton National Airport (19 nm SW)
 
Loc | Ops | Rwys | IFR | FBO | Links
Com | Nav | Svcs | Stats | Notes


 
Area around 0W0 (Seattle Seaplanes Seaplane Base)
 
Road maps at: MapQuest Bing Google
 
Aerial photo
WARNING: Photo may not be current or correct
Aerial photo of 0W0 (Seattle Seaplanes Seaplane Base)
Photo taken 24-Jan-2007

Do you have a better or more recent aerial photo of Seattle Seaplanes Seaplane Base that you would like to share? If so, please send us your photo.

 
Sectional chart

 
Airport distance calculator
Flying to Seattle Seaplanes Seaplane Base? Find the distance to fly.

From to 0W0

Sunrise and sunset
Times for 14-Aug-2018
 Local
(UTC-7)
 Zulu
(UTC)
Morning civil twilight05:3112:31
Sunrise06:0513:05
Sunset20:2303:23
Evening civil twilight20:5703:57

Current date and time
Zulu (UTC)  15-Aug-2018 04:21:28
Local (UTC-7)  14-Aug-2018 21:21:28
 
METAR
KBFI 
5nm S 
150353Z 00000KT 3SM HZ FU CLR 24/13 A2982 RMK AO2 SLP098 T02390133
KRNT 
9nm SE 
150353Z AUTO 30004KT 6SM HZ OVC035 25/14 A2982 RMK AO2 SLP102 T02500144
KSEA 
11nm S 
150353Z 35007KT 4SM HZ FU OVC038 24/12 A2984 RMK AO2 SLP107 FU OVC038 T02390122
KPAE 
17nm N 
150400Z AUTO 33003KT 6SM HZ FU OVC044 21/14 A2986 RMK AO2 T02110144
KPWT 
19nm SW 
150356Z AUTO 05006KT 4SM HZ CLR 22/13 A2985 RMK AO2 SLP118 T02170133
TAF
KBFI 
5nm S 
142059Z 1421/1518 30006KT 3SM HZ FU SCT050 FM150000 VRB04KT P6SM SKC
KSEA 
11nm S 
142047Z 1421/1524 30007KT 3SM HZ FU SCT050 FM150000 34006KT P6SM FEW060 FM150900 VRB04KT P6SM SCT060 FM151800 21006KT P6SM SCT060 FM152100 31005KT P6SM SCT060
KPAE 
17nm N 
142101Z 1421/1518 34005KT 3SM HZ FU SCT050 FM150300 35004KT P6SM SKC
KPWT 
19nm SW 
142059Z 1421/1518 05006KT 4SM HZ FU SCT050 FM150300 04005KT P6SM SKC FM150400 VRB04KT P6SM SKC
NOTAMs
Click for the latest NOTAMs
NOTAMs are issued by the DoD/FAA and will open in a separate window not controlled by AirNav.

 

 
 

Would you like to see your business listed on this page?

 If your business provides an interesting product or service to pilots, flight crews, aircraft, or users of the Seattle Seaplanes Seaplane Base, you should consider listing it here.  To start the listing process, click on the button below
 
Add a business
 

Other Pages about Seattle Seaplanes Seaplane Base

Update a link
 
Copyright © AirNav, LLC. All rights reserved. Privacy Policy  Contact